Home   Weather   Kryvyi Rih   Past weeks

Flag for Ukraine Past Weather in Kryvyi Rih, Ukraine — Yesterday and Last 2 Weeks

Now
18 °F

Clear.


Feels Like: 9 °F
Forecast: 8 / 22 °F
Wind: 6 mph from North

Location: Krivyy Rih / Dnipropetrovs'k

Current Time: Jan 19, 2017 at 5:30:21 pm

Latest Report: Jan 19, 2017 at 5:00 pm


Visibility: 10 mi

Pressure: 30.63 "Hg

Humidity: 73%

Dew Point: 10 °F

Location of Kryvyi RihLocation

Past Weather in Kryvyi Rih — Graph

°F

Kryvyi Rih Temperature Yesterday

Maximum temperature yesterday: 21 °F (at 6:00 pm)
Minimum temperature yesterday: 14 °F (at 8:00 am)
Average temperature yesterday: 18 °F

High & Low Weather Summary for the Past Weeks

 TemperatureHumidityPressure
High37 °F (Jan 14, 3:00 pm)100% (Jan 9, 6:00 pm)30.66 "Hg (Jan 9, 6:00 pm)
Low7 °F (Jan 8, 5:00 pm)61% (Jan 8, 3:00 pm)29.56 "Hg (Jan 5, 3:30 am)
Average22 °F86%30.03 "Hg
* Reported Jan 4 4:00 pm — Jan 19 4:30 pm, Kryvyi Rih, Weather by CustomWeather, © 2017

Note: Actual official high and low records may vary slightly from our data, if they occured in-between our weather recording intervals... More about our weather records

Advertising

Kryvyi Rih Weather History for the Previous 24 Hours

Scroll right to see more
 ConditionsComfort  
Time TempWeatherWind HumidityBarometerVisibility
4:30 pm
Thu, Jan 19
19 °FClear.3 mph73%30.63 "Hg10 mi
4:00 pm19 °FSunny.3 mph73%30.63 "Hg10 mi
3:30 pm21 °FPassing clouds.3 mph74%30.63 "HgN/A
3:00 pm21 °FPassing clouds.6 mph74%30.63 "HgN/A
2:30 pm23 °FSunny.6 mph63%30.63 "Hg10 mi
2:00 pm23 °FPassing clouds.3 mph63%30.63 "HgN/A
1:30 pm23 °FSunny.6 mph68%30.63 "Hg10 mi
1:00 pm23 °FPassing clouds.6 mph68%30.63 "HgN/A
11:30 am19 °FPassing clouds.8 mph79%30.66 "HgN/A
11:00 am19 °FPassing clouds.8 mph79%30.66 "HgN/A
10:30 am18 °FPassing clouds.8 mph79%30.66 "HgN/A
10:00 am18 °FPassing clouds.8 mph79%30.66 "HgN/A
9:30 am16 °FPassing clouds.6 mph79%30.66 "HgN/A
9:00 am16 °FSunny.6 mph79%30.66 "Hg10 mi
8:30 am12 °FSunny.6 mph85%30.66 "Hg10 mi
8:00 am12 °FSunny.3 mph85%30.63 "Hg10 mi
7:30 am16 °FSunny.6 mph86%30.63 "Hg10 mi
7:00 am16 °FPassing clouds.3 mph86%30.63 "HgN/A
6:30 am16 °FClear.8 mph79%30.63 "Hg10 mi
6:00 am16 °FClear.6 mph79%30.63 "Hg10 mi
5:30 am18 °FClear.6 mph79%30.63 "Hg10 mi
5:00 am18 °FClear.6 mph79%30.63 "Hg10 mi
4:30 am18 °FPassing clouds.3 mph86%30.63 "HgN/A
4:00 am18 °FPassing clouds.6 mph86%30.63 "HgN/A
3:30 am18 °FPassing clouds.6 mph86%30.63 "HgN/A
3:00 am18 °FClear.6 mph86%30.63 "Hg10 mi
2:30 am19 °FPassing clouds.8 mph86%30.63 "HgN/A
2:00 am19 °FOvercast.8 mph86%30.63 "HgN/A
1:30 am21 °FOvercast.8 mph80%30.63 "HgN/A
1:00 am21 °FOvercast.8 mph80%30.63 "HgN/A
12:30 am21 °FOvercast.8 mph80%30.63 "HgN/A
12:00 am21 °FOvercast.8 mph80%30.63 "HgN/A
11:30 pm
Wed, Jan 18
21 °FOvercast.10 mph80%30.63 "HgN/A
11:00 pm21 °FOvercast.10 mph80%30.63 "HgN/A
10:30 pm21 °FOvercast.10 mph86%30.63 "HgN/A
10:00 pm21 °FOvercast.10 mph86%30.63 "HgN/A
9:30 pm21 °FOvercast.13 mph80%30.63 "HgN/A
9:00 pm21 °FOvercast.13 mph80%30.63 "HgN/A
8:30 pm21 °FOvercast.10 mph80%30.63 "HgN/A
8:00 pm21 °FOvercast.13 mph80%30.63 "HgN/A
7:30 pm21 °FOvercast.13 mph80%30.63 "HgN/A
7:00 pm21 °FOvercast.15 mph80%30.63 "HgN/A
6:30 pm21 °FOvercast.13 mph80%30.60 "HgN/A
6:00 pm21 °FOvercast.15 mph80%30.60 "HgN/A
5:30 pm19 °FOvercast.13 mph86%30.60 "HgN/A
5:00 pm19 °FOvercast.13 mph86%30.60 "HgN/A
Weather by CustomWeather, © 2017

See weather overviewHow to use our weather pages